Regional Weather Roundup
Issued by NWS

Home | Current Version | Previous Version | Graphics & Text | Print | Product List | Glossary On
Versions: 1 2 3 4 5 6 7 8 9 10 11 12 13 14 15 16 17 18 19 20 21 22 23 24 25 26 27 28 29 30 31 32 33 34 35 36 37 38 39 40 41 42 43 44 45 46 47 48 49 50
000
ASUS43 KMKX 222000
RWRWI

WISCONSIN REGIONAL WEATHER ROUNDUP
NATIONAL WEATHER SERVICE MILWAUKEE/SULLIVAN WI
300 PM CDT FRI AUG 22 2014

NOTE: "FAIR" INDICATES FEW OR NO CLOUDS BELOW 12,000 FEET WITH NO
SIGNIFICANT WEATHER AND/OR OBSTRUCTIONS TO VISIBILITY.

WIZ001-002-006>008-014>016-023>028-222100-
NORTHWEST WISCONSIN

CITY           SKY/WX    TMP DP  RH WIND       PRES   REMARKS
SUPERIOR ARPT  CLOUDY    63  61  93 E3        30.01S
ASHLAND        CLOUDY    67  63  87 N6        30.01R
HAYWARD        CLOUDY    73  69  87 NE7       29.99R
SIREN          CLOUDY    72  66  82 NW3       30.00S
RICE LAKE      CLOUDY    78  71  78 W8        29.98S HX  80
LADYSMITH      PTSUNNY   76  71  84 NW7       29.99R
EAU CLAIRE     MOSUNNY   84  70  62 W9        29.93F HX  88
MENOMONIE      CLEAR     85  69  58 W8        29.94F HX  89
NEW RICHMOND   CLOUDY    74  69  85 NW3       29.99S
OSCEOLA        CLOUDY    73  71  92 N3        30.01S
$$

WIZ003>005-009-010-017-018-222100-
NORTH CENTRAL WISCONSIN

CITY           SKY/WX    TMP DP  RH WIND       PRES   REMARKS
WOODRUFF       CLOUDY    77  73  87 S5        29.99S
RHINELANDER    CLOUDY    71  69  93 SE3       29.99F
EAGLE RIVER    CLOUDY    72  70  93 CALM      29.99F
LAND O LAKES   CLOUDY    73  68  84 E5        30.00F
PHILLIPS       CLOUDY    71  69  95 CALM      29.98S
TOMAHAWK       CLOUDY    71  68  91 CALM      29.99S FOG
MEDFORD        CLOUDY    73  73  99 CALM      29.98S FOG
MERRILL        CLOUDY    72  71  98 CALM      29.98S FOG
$$

WIZ029-030-035-036-043>047-222100-
CENTRAL WISCONSIN

CITY           SKY/WX    TMP DP  RH WIND       PRES   REMARKS
WAUSAU         LGT RAIN  81  73  76 NW5       29.94F HX  86
MOSINEE        PTSUNNY   81  75  83 SW7       29.96F HX  86
MARSHFIELD     LGT RAIN  79  74  84 SW6       29.96S HX  82
STEVENS POINT  CLOUDY    84  73  69 SW7       29.95S HX  89
WAUPACA        MOSUNNY   88  73  62 SE3       29.93F HX  95
WAUTOMA        NOT AVBL
WISC RAPIDS    MOSUNNY   86  73  65 SW9       29.95S HX  93
CAMP DOUGLAS   NOT AVBL
$$

WIZ011>013-019>022-031-037>040-048>050-222100-
NORTHEAST WISCONSIN

CITY           SKY/WX    TMP DP  RH WIND       PRES   REMARKS
ANTIGO         CLOUDY    69  69 100 SE8       29.99F FOG
STURGEON BAY   CLOUDY    72  68  88 SE7       29.98F
GREEN BAY      PTSUNNY   82  72  71 CALM      29.94F HX  87
MANITOWOC      MOSUNNY   73  72  94 E7        29.96F
APPLETON       PTSUNNY   81  73  78 VRB3      29.95F HX  85
CLINTONVILLE   CLOUDY    79  72  78 E6        29.94F HX  82
OSHKOSH        SUNNY     82  74  76 NE8       29.92F HX  88
$$

WIZ032>034-041-042-053>061-222100-
SOUTHWEST WISCONSIN

CITY           SKY/WX    TMP DP  RH WIND       PRES   REMARKS
LA CROSSE      CLOUDY    82  74  76 SW3       29.92F HX  88
SPARTA         PTSUNNY   84  73  69 W6        29.94S HX  90
VIROQUA        MOCLDY    85  76  74 SW6       29.95F HX  94
BOSCOBEL       MOSUNNY   90  73  57 NW6       29.91F HX  98
PRAIRIE DU CHI SUNNY     88  71  56 CALM      29.91S HX  93
PLATTEVILLE    FAIR      84  77  79 S5        29.94F HX  94
$$

WIZ056-057-062-063-064-067-068-222100-
SOUTH CENTRAL WISCONSIN

CITY           SKY/WX    TMP DP  RH WIND       PRES   REMARKS
BARABOO/DELLS  MOSUNNY   89  69  52 SW5       29.93S HX  93
LONE ROCK      NOT AVBL
WATERTOWN      PTSUNNY   85  77  75 CALM      29.92F HX  96
MADISON        MOSUNNY   86  73  65 S6        29.92F HX  93
MIDDLETON      FAIR      88  72  58 W6        29.93F HX  95
MONROE         MOSUNNY   82  73  74 SW3       29.94F HX  88
JANESVILLE     PTSUNNY   86  73  66 SW5       29.92F HX  93
$$

WIZ051-052-058>065-066-070>072-222100-
SOUTHEAST WISCONSIN

CITY           SKY/WX    TMP DP  RH WIND       PRES   REMARKS
MILWAUKEE      MOSUNNY   83  73  72 CALM      29.93F HX  89
WAUKESHA       PTSUNNY   82  72  69 SE5       29.95S HX  87
MILWAUKEE/TIMM PTSUNNY   82  70  65 E7        29.94F HX  86
RACINE         MOSUNNY   82  73  74 SE5       29.95F HX  87
BURLINGTON     MOSUNNY   82  74  77 CALM      29.94S HX  88
KENOSHA        MOSUNNY   82  75  79 NE6       29.94S HX  89
FOND DU LAC    MOSUNNY   85  70  60 NW3       29.93F HX  89
SHEBOYGAN      PTSUNNY   79  71  76 E6        29.95S HX  82
WEST BEND      PTSUNNY   81  70  69 E5        29.95S HX  84
JUNEAU         MOSUNNY   85  46  25 SW3       29.94F HX  82
$$

LSZ147-162-222100-
LAKE SUPERIOR

STATION/POSITION TIME  TEMP    WIND        PRES    WAVE
                       AIR SEA DIR/SP/G            HT/PER
                 (UTC) (F)     (DEG/KT/KT) (MB)    (FT/S)
W MID LAKE BUOY  1850   58 58   30/ 12/ 14 1015.4S   2/ 4
DEVILS ISLAND    1900   59      60/ 11/ 12 1015.9R
PORT WING        1940   59      30/  5/  7 1016.3R
SAXON HARBOR     1900   63     340/  3/  5 1015.2F
$$

LMZ867-665-643>646-222100-
LAKE MICHIGAN

STATION/POSITION TIME  TEMP    WIND        PRES    WAVE
                       AIR SEA DIR/SP/G            HT/PER
                 (UTC) (F)     (DEG/KT/KT) (MB)    (FT/S)
N MID LAKE BUOY  1850   68 67  330/  4/  6 1015.4R   0
NORTHPORT PIER   1900   67     130/  7/  8 1015.6S
SISTER BAY       1911   82     200/  6/  9   N/A
KEWAUNEE LAKESHO 1900   69     100/  3/  5 1014.4F
SHEBOYGAN LAKESH 1900   69 64  100/  4/  4 1014.6F
ATWATER BUOY     1900   71     120/  2/  4 1015.1F
MILWAUKEE LAKESH 1900   72     150/  5/  6   N/A
S MID LAKE BUOY  1850   72 71  140/  4/  4 1014.2F   0
KENOSHA   LAKESH 1900   76     100/  3/  3 1013.5F
$$

TC  - TEMPERATURE IN CELSIUS
VSB - VISIBILITY IN STATUTE MILES
WCI - WIND CHILL INDEX
HX  - HEAT INDEX




USA.gov is the U.S. government's official web portal to all federal, state and local government web resources and services.